SL-24 R/B, 40303

Orbit data source: Space-Track

SL-24 R/B, 40303 is space debris in SSO originally from a launch on Thu, 06 Nov 2014 UTC launched from the Orenburg, Russia (OREN). Debris objects in space refer to the collection of defunct objects orbiting the Earth. Examples of debris include non-operational satellites, rocket bodies, and fragments generated from explosions, collisions, or faulty payload assembly.

Loading next visibility...
Identifier
40303, 2014-070F
Orbit
SSO
Country
Flag of CISCIS
Related business
Manufacturer
Yuzhnoe
Mission
Spacecraft
Bus & Motor
15A18-BR, Unknown motor
Mass
~1,000 kg wet, ~1,000 kg dry
Launch date (UTC)
2014-11-06 (11 years ago)
Launch vehicle
Unknown
Launch site
Orenburg, Russia (OREN)
Object type
Payload
Rocket body
Debris
Shape & HBR
Cyl, 1.5 m
Radar Cross Section
10.603 m², Large (>1 m²)

Expand to show TLE details & history
Last TLE update: 20 hours ago

TLE from 20 hours ago
0 SL-24 R/B
1 40303U 14070F   25259.96584962  .00000214  00000-0  55303-4 0  9991
2 40303  97.1457 236.1569 0949230 162.9476 200.6015 13.14987608520715
Epoch: 2025-09-16T23:10Z
TLE epoch observation values (Epoch: 2025-09-16T23:10:49.407Z)
Latitude
0.00007°
Longitude
-107.69755°
Altitude
1,888.048 km
Speed
6.626 km/s
True Right ascension
15h 44m 37s
True Declination
0° 00' 00"
Sunlit
Object was in daylight at epoch
Visualization orbit readout
Latitude
Unknown
Longitude
Unknown
Altitude
Unknown
Speed
Unknown
Apparent Right ascension
Unknown
Apparent Declination
Unknown
Sunlit
N/A
Visualization observer readout
Local Sidereal Time
11:56:13
Azimuth
Unknown
Elevation
Unknown
Doppler factor
Unknown
Orbital elements
Apogee altitude
1,920.571 km
Perigee altitude
481.678 km
Semi-major axis
7,579.261 km
Eccentricity
0.09492
Inclination
97.1457°
RAAN
236.1569°
Arg. of periapsis
162.9476°
True anomaly
197.16005°
Mean anomaly
200.6015°
Eccentric anomaly
198.84477°
Mean motion
3.2893 °/min
Orbital period
109.45 mins
BSTAR
0.000055303
Loading maneuver chart data...
Computing Atmospheric mass density...
Loading historical data...
Loading historical data...
Loading historical data...
Loading historical data...
Loading historical data...
Loading historical data...
Loading historical data...

Documentation

Showing up to 5 results
|